7 * 24
多渠道服务支持
KUIPER-00353(NORAD编号68865)是亚马逊柯伊伯(Project Kuiper)低轨宽带星座中的一颗通信卫星,该项目旨在构建覆盖全球的高速低延迟卫星互联网系统。作为亚马逊大规模星座部署计划的一部分,它运行在近地轨道,采用改进型设计,搭载相控阵天线与光学星间链路等先进设备,为实现全球偏远地区网络覆盖提供支撑,是亚马逊推进太空互联网组网的重要节点卫星,助力完成计划中超3200颗卫星的第一代星座构建。
美国
(US)
| 数据来源 | 国际轨道数据 |
| 星历时间: | 2026-05-24T08:23:29+0800 1天前 查看轨道信息 |
| 半长轴: | 6827.924km |
| 偏心率: | 0.0000744 |
| 轨道倾角: | 51.886° |
| 近地点辐角 | 164.224° |
| 升交点赤经 | 359.043° |
| 平近点角 | 195.877° |
| 近地点: | 449.279km |
| 远地点: | 450.295km |
| 周期: | 93.582分钟 |
| 每日圈数: | 15.387562 |